Weather in Kvarsa

Russia / Udmurt Republic     56°57′33″N   53°56′43″E
temp.,
°C
wind,
m/s
gust,
m/s
humid.,
%
clouds,
%
prec.,
mm/h
press.,
hPa
HPBL,
m
15 may, sat
sat1501:00+17s366510 0.0 1019107
04:00+16ssw386730 0.0 1019157
07:00+19sw366635 0.0 1020208
10:00+25sw455326 0.0 1020628
13:00+28sw5741100 0.0 10191248
16:00+28sw6935100 0.0 10191252
19:00+24ssw51146100 0.0 1018414
22:00+20sw395999 0.0 1018167
16 may, sun
sun1601:00+17ssw356587 0.0 101870
04:00+16ssw336613 0.0 101941
07:00+20ssw385322 0.0 1019232
10:00+26sw58355 0.0 1018730
13:00+29sw69285 0.0 10181979
16:00+30sw6102936 0.0 10172793
19:00+26ssw41141100 0.0 1016376
22:00+21sw3856100 0.0 1016136
17 may, mon
mon1701:00+18ssw3560100 0.0 101768
04:00+16sw226423 0.0 101718
07:00+20sw245863 0.0 1018203
10:00+25wsw4646100 0.0 1018720
13:00+28wsw6933100 0.0 10182023
16:00+29wsw582771 0.0 10172546
19:00+24w384431 0.1 1017225
22:00+19nw22605 0.2 101817
18 may, tue
tue1801:00+17e117381 0.1 101811
04:00+16sse1174100 0.1 101811
07:00+20sse116490 0.4 1019155
10:00+25sw224914 0.4 1018706
13:00+29wsw36345 0.0 10172166
16:00+30w45225 0.0 10163418
19:00+26nw2242100 0.0 101514
22:00+20nne2255100 0.0 101714
19 may, wed
wed1901:00+18ne236544 0.0 101744
04:00+16e256948 0.0 101876
07:00+20e365823 0.0 1018264
10:00+26ese45429 0.0 1018888
13:00+29ese43345 0.0 10172330
16:00+29se443128 0.0 10162856
19:00+26ese48446 0.0 1016288
22:00+21se412555 0.0 1016292